Torna al catalogo

STARLINK-30172

AttivoComunicazioniVLEO
NORAD 57410·PAYLOAD·🇺🇸 United States

Lanciato Jul 20, 2023 da Vandenberg Space Force Base

Loading…

Prossimi Passaggi (prossime 24 ore)

TLE

AggiornatoSource: CelesTrak SupGP

Epoca: Sep 15, 2026, 02:42 UTC

1 57410C 23102G   26258.11298611  .00234770  00000+0  50550-2 0  2584
2 57410  42.9998 256.8263 0001871 273.7215  47.8134 15.43640764    14

Traccia STARLINK-30172 in tempo reale con AllMySat

Download on the App Store